Location: Cheyres
(46.8153°N, 6.7877°E)
Time: 01:26:16
(UTC+00:00)

Cosmos 1633 Rocket - Pass Details

Date: 11 May 2021
Orbit: 608 x 622 km, 82.5° (Epoch: 23 June)

Event Time Altitude Azimuth Distance (km) Brightness Sun altitude
Rises 20:33:12 0° 346° (NNW) 2,901 7.6 -14.0°
Reaches altitude 10° 20:35:28 10° 342° (NNW) 1,993 6.7 -14.2°
Maximum altitude 20:39:46 55° 266° (W) 750 3.7 -14.7°
Enters shadow 20:43:39 13° 190° (S) 1,823 5.1 -15.1°
